Weather History for KMSY - January, 2014

Change the Weather History Date:

Monday, January 13, 2014

  Actual Average Record
Temperature  
Mean Temperature 58 °F -  
Max Temperature 64 °F 58 °F 82 °F (1972)
Min Temperature 53 °F 41 °F 15 °F (1962)
Degree Days  
Heating Degree Days 6    
Growing Degree Days 8 (Base 50)    
Moisture  
Dew Point 58 °F    
Average Humidity 93    
Maximum Humidity 100    
Minimum Humidity 60    
Precipitation  
Precipitation 0.87 in - - ()
Sea Level Pressure  
Sea Level Pressure 29.96 in    
Wind  
Wind Speed 8 mph (South)    
Max Wind Speed 14 mph    
Max Gust Speed 22 mph    
Visibility 6 miles    
Events Fog , Rain , Thunderstorm    
Averages and records for this station are not official NWS values.
T = Trace of Precipitation, MM = Missing Value Source: NWS Daily Summary

Daily Weather History Graph

Daily Weather History Graph

Search for Another Location

Airport or City:

Trip Planner

Search our weather history database for the weather conditions in past years. The results will help you decide how hot, cold, wet, or windy it might be!

Date:

Astronomy

Jan. 13, 2014 Rise Set
Actual Time 6:57 AM CST 5:21 PM CST
Civil Twilight 6:31 AM CST 5:47 PM CST
Nautical Twilight 6:02 AM CST 6:17 PM CST
Astronomical Twilight 5:33 AM CST 6:46 PM CST
Moon 3:35 PM CST (1/13) 4:47 AM CST (1/13)
Length of Visible Light 11h 15m
Length of Day
10h 24m
Waxing Gibbous, 95% of the Moon is Illuminated
Jan 13
Waxing Gibbous
Jan 15
Full
Jan 23
Last Quarter
Jan 30
New
Feb 6
First Quarter

Hourly Weather History & Observations

Time (CST) Temp. Dew Point Humidity Pressure Visibility Wind Dir Wind Speed Gust Speed Precip Events Conditions
12:53 AM 55.9 °F 50.0 °F 80% 30.05 in 10.0 mi SE 10.4 mph - N/A   Mostly Cloudy
1:53 AM 57.0 °F 52.0 °F 83% 30.03 in 10.0 mi SSE 6.9 mph - N/A   Overcast
2:53 AM 57.9 °F 53.1 °F 84% 30.04 in 9.0 mi SSE 8.1 mph - N/A   Mostly Cloudy
3:53 AM 57.0 °F 54.0 °F 89% 30.06 in 10.0 mi WSW 6.9 mph - N/A   Overcast
4:25 AM 55.9 °F 54.0 °F 93% 30.04 in 10.0 mi SE 3.5 mph - N/A Thunderstorm Thunderstorm
4:53 AM 55.9 °F 55.0 °F 97% 30.05 in 7.0 mi Calm Calm - 0.00 in Rain , Thunderstorm Light Thunderstorms and Rain
5:08 AM 55.9 °F 55.0 °F 97% 30.02 in 8.0 mi East 4.6 mph - 0.01 in Rain Light Rain
5:53 AM 57.9 °F 55.9 °F 93% 30.01 in 8.0 mi ESE 5.8 mph - 0.01 in   Overcast
6:46 AM 57.9 °F 55.9 °F 93% 30.05 in 8.0 mi SSW 10.4 mph - 0.00 in Rain , Thunderstorm Light Thunderstorms and Rain
6:53 AM 57.9 °F 55.9 °F 93% 30.03 in 8.0 mi SSE 8.1 mph - 0.03 in Rain , Thunderstorm Thunderstorms and Rain
7:15 AM 57.9 °F 57.0 °F 97% 30.03 in 5.0 mi SSE 10.4 mph - 0.06 in Rain Light Rain
7:51 AM 60.8 °F 59.0 °F 94% 30.00 in 5.0 mi SSE 13.8 mph - 0.13 in Rain , Thunderstorm Light Thunderstorms and Rain
7:53 AM 60.1 °F 59.0 °F 96% 30.01 in 5.0 mi SSE 12.7 mph - 0.13 in Rain , Thunderstorm Light Thunderstorms and Rain
8:24 AM 61.0 °F 60.1 °F 97% 29.99 in 2.5 mi SSE 13.8 mph - 0.10 in Rain Rain
8:53 AM 63.0 °F 61.0 °F 93% 30.04 in 2.0 mi West 13.8 mph 21.9 mph 0.22 in Rain Light Rain
9:41 AM 62.1 °F 61.0 °F 96% 30.01 in 4.0 mi Calm Calm - 0.10 in Rain Light Rain
9:53 AM 62.1 °F 61.0 °F 96% 30.01 in 4.0 mi SSE 4.6 mph - 0.11 in Rain Rain
9:58 AM 63.0 °F 62.1 °F 97% 29.99 in 0.8 mi South 4.6 mph - 0.03 in Rain Rain
10:06 AM 63.0 °F 62.1 °F 97% 29.98 in 2.0 mi South 4.6 mph - 0.07 in Rain Rain
10:36 AM 63.0 °F 62.1 °F 97% 29.98 in 3.0 mi SSE 12.7 mph - 0.19 in Rain Light Rain
10:53 AM 62.1 °F 61.0 °F 96% 30.00 in 3.0 mi SSE 12.7 mph - 0.22 in Rain Light Rain
11:37 AM 62.1 °F 61.0 °F 96% 29.93 in 3.0 mi South 8.1 mph - 0.13 in Rain , Thunderstorm Light Thunderstorms and Rain
11:53 AM 62.1 °F 61.0 °F 96% 29.93 in 4.0 mi SSE 10.4 mph - 0.17 in Rain Light Rain
12:53 PM 62.1 °F 61.0 °F 96% 29.88 in 7.0 mi South 9.2 mph - 0.01 in Rain Light Rain
1:53 PM 64.0 °F 63.0 °F 96% 29.87 in 7.0 mi South 11.5 mph - 0.01 in   Overcast
2:07 PM 64.9 °F 63.0 °F 93% 29.86 in 8.0 mi SSW 10.4 mph - N/A   Overcast
2:53 PM 63.0 °F 62.1 °F 97% 29.87 in 10.0 mi South 13.8 mph - N/A   Overcast
3:50 PM 64.4 °F 62.6 °F 94% 29.86 in 10.0 mi SSW 8.1 mph - N/A   Mostly Cloudy
3:53 PM 64.9 °F 62.1 °F 90% 29.88 in 10.0 mi SSW 8.1 mph - N/A   Mostly Cloudy
4:08 PM 64.0 °F 62.1 °F 93% 29.87 in 10.0 mi SSW 6.9 mph - N/A   Overcast
4:25 PM 64.9 °F 62.1 °F 90% 29.87 in 10.0 mi SSW 6.9 mph - N/A   Overcast
4:53 PM 64.9 °F 62.1 °F 90% 29.88 in 10.0 mi SSW 6.9 mph - N/A   Overcast
5:16 PM 64.0 °F 62.1 °F 93% 29.87 in 10.0 mi South 6.9 mph - N/A   Overcast
5:25 PM 64.0 °F 62.1 °F 93% 29.88 in 10.0 mi South 5.8 mph - N/A   Overcast
5:53 PM 63.0 °F 62.1 °F 97% 29.90 in 10.0 mi West 3.5 mph - N/A   Overcast
6:21 PM 63.0 °F 61.0 °F 93% 29.89 in 10.0 mi SSW 5.8 mph - N/A   Mostly Cloudy
6:53 PM 62.1 °F 61.0 °F 96% 29.91 in 10.0 mi South 3.5 mph - N/A   Mostly Cloudy
7:33 PM 60.1 °F 59.0 °F 96% 29.92 in 2.5 mi Calm Calm - N/A   Mostly Cloudy
7:42 PM 61.0 °F 60.1 °F 97% 29.92 in 0.5 mi Calm Calm - N/A Fog Fog
7:47 PM 59.0 °F 59.0 °F 100% 29.92 in 0.2 mi Calm Calm - N/A Fog Fog
7:53 PM 59.0 °F 57.9 °F 96% 29.93 in 0.2 mi Calm Calm - N/A Fog Fog
8:07 PM 57.9 °F 57.9 °F 100% 29.92 in 1.0 mi South 3.5 mph - N/A   Scattered Clouds
8:17 PM 57.0 °F 57.0 °F 100% 29.92 in 0.2 mi SSW 4.6 mph - N/A Fog Fog
8:47 PM 53.6 °F 53.6 °F 100% 29.94 in 0.5 mi WSW 4.6 mph - N/A Fog Fog
8:53 PM 57.0 °F 55.9 °F 96% 29.95 in 0.5 mi West 3.5 mph - N/A Fog Fog
8:56 PM 57.0 °F 57.0 °F 100% 29.94 in 0.2 mi West 4.6 mph - N/A Fog Fog
9:28 PM 61.0 °F 61.0 °F 100% 29.97 in 2.5 mi WNW 10.4 mph - N/A   Mostly Cloudy
9:39 PM 61.0 °F 60.1 °F 97% 29.97 in 4.0 mi WNW 11.5 mph - N/A   Mostly Cloudy
9:53 PM 60.1 °F 59.0 °F 96% 29.98 in 6.0 mi WNW 10.4 mph - N/A   Mostly Cloudy
10:53 PM 57.0 °F 46.9 °F 69% 30.00 in 9.0 mi NW 12.7 mph - N/A   Partly Cloudy
11:53 PM 54.0 °F 44.1 °F 69% 30.02 in 10.0 mi NW 12.7 mph - N/A   Partly Cloudy